STARLINK-11508, 62515

Orbit data source: Space-Track

STARLINK-11508, 62515 is a payload satellite owned by SpaceX/Seattle (US) in LEO that was launched on Wed, 08 Jan 2025 UTC via an FALCON 9 launch vehicle from the Air Force Eastern Test Range (AFETR). Payload-class satellites include a variety of spacecraft equipped with specific instruments for various scientific and technological missions. These include communications satellites like Starlink; space stations such as the ISS; scientific satellites like the Hubble; Earth observation satellites from companies like Planet Labs, Umbra, and HawkEye 360; GPS; miniature CubeSats for education and research; and military/defense satellites.

Loading next visibility...
Identifier
62515, 2025-004E
Orbit
LEO
Last TLE update
6 hours ago
Origin
Manufacturer
SpaceX/Seattle
Mission
Operational Commercial Communications
Bus & Motor
STARLINK V2M, Unknown motor
Mass
730 kg wet, ~700 kg dry
Launch date (UTC)
2025-01-08 (6 months ago)
Launch vehicle
FALCON 9
Launch site
Air Force Eastern Test Range (AFETR)
Object type
Payload
Rocket body
Debris
Shape & HBR
Box + 2 Pan, 29 m
Radar Cross Section
36.964 m², Large (>1 m²)

Expand to show TLE details & history

TLE from 6 hours ago
0 STARLINK-11508
1 62515U 25004E   25182.16668981 -.00078116  00000-0 -61076-3 0  9991
2 62515  43.0003 146.6619 0001600 274.0392  40.8356 15.70848855 28566
Epoch: 2025-07-01T04:00Z
TLE epoch observation values (Epoch: 2025-07-01T04:00:01.999Z)
Latitude
-29.07207°
Longitude
130.82892°
Altitude
363.297 km
Speed
7.692 km/s
True Right ascension
07h 21m 12s
True Declination
-28° 55' 04"
Sunlit
Object was in daylight at epoch
Visualization orbit readout
Latitude
-42.0245°
Longitude
59.65334°
Altitude
368.401 km
Speed
7.689 km/s
Apparent Right ascension
05h 59m 49s
Apparent Declination
-54° 20' 15"
Sunlit
Object is in daylight
Visualization observer readout
Local Sidereal Time
21:30:11
Azimuth
130.526° SE
Elevation
-52.466°
Doppler factor
1
Orbital elements
Apogee altitude
359.529 km
Perigee altitude
357.373 km
Semi-major axis
6,736.588 km
Eccentricity
0.00016
Inclination
43.0003°
RAAN
146.6619°
Arg. of periapsis
274.0392°
True anomaly
Unknown
Mean anomaly
40.8356°
Eccentric anomaly
Unknown
Mean motion
3.92539 °/min
Orbital period
91.71 mins
BSTAR
-0.00061076
Loading maneuver chart data...
Loading SW <> Apogee altitude chart data...
Loading historical data...
Loading historical data...
Loading historical data...
Loading historical data...
Loading historical data...
Loading historical data...
Loading historical data...

STARLINK-11508 Visibility forecast

Observer location: undefined°, undefined°

Span
Click to sort rows by Start time (UTC) header in descending order
Start Az.
Max El. time (UTC)
Max El. Az.
Max El.
End time (UTC)
End Az.
4 mins2025-07-02 03:25:49.818Z299.611° NW2025-07-02 03:26:49.818Z337.668° N33.711°2025-07-02 03:29:49.818Z71.018° E
4 mins2025-07-02 05:01:49.818Z295.484° NW2025-07-02 05:03:49.818Z64.944° ENE40.438°2025-07-02 05:05:49.818Z97.679° ESE
|